Location: Sangrey
(48.2845°N, 109.8206°W)
Time: 22:05:22
(UTC+00:00)

Envisat - Pass Details

Date: 24 January 2022
Orbit: 764 x 765 km, 98.2° (Epoch: 21 May)

Event Time Altitude Azimuth Distance (km) Brightness Sun altitude
Rises 13:50:47 0° 2° (N) 3,243 6.1 -11.0°
Reaches altitude 10° 13:53:41 10° 345° (NNW) 2,312 5.2 -10.6°
Maximum altitude 13:57:11 19° 302° (WNW) 1,760 4.3 -10.0°
Drops below altitude 10° 14:00:40 10° 258° (WSW) 2,302 5.0 -9.5°
Sets 14:03:34 0° 241° (WSW) 3,224 5.8 -9.0°
